Regional Weather Roundup
Issued by NWS Albany, NY

Home | Current Version | Previous Version | Graphics & Text | Print | Product List | Glossary Off
Versions: 1 2 3 4 5 6 7 8 9 10 11 12 13 14 15 16 17 18 19 20 21 22 23 24 25 26 27 28 29

000
ASUS41 KALY 250710
RWRALY

NEW YORK STATE HOURLY WEATHER ROUNDUP
NATIONAL WEATHER SERVICE ALBANY NY
300 AM EDT THU AUG 25 2016

NOTE: "FAIR" INDICATES FEW OR NO CLOUDS BELOW 12,000 FEET WITH NO
SIGNIFICANT WEATHER AND/OR NO OBSTRUCTIONS TO VISIBILITY.

NYZ032-033-038>043-046>054-057>066-NYZ062>081-082-084-250800-
EAST


CITY           SKY/WX    TMP DP  RH WIND       PRES   REMARKS
ALBANY         PTCLDY    69  62  78 S9        30.08S
GLENS FALLS    CLEAR     63  59  87 CALM      30.06F
POUGHKEEPSIE   CLEAR     66  63  90 SE5       30.10F
NEWBURGH       CLEAR     68  63  83 SW5       30.14F
MONTGOMERY     CLEAR     62  60  93 S6        30.12F
WHITE PLAINS   CLEAR     69  61  75 W5        30.14S
ISLIP          CLEAR     70  62  76 SW6       30.12F
NEW YORK CITY  MOCLDY    74  63  68 SW12      30.13F
CENTRAL PARK     N/A     72  61  68 MISG        N/A
$$

NYZ005>009-017-018-044>046-055-056-250800-
CENTRAL


CITY           SKY/WX    TMP DP  RH WIND       PRES   REMARKS
FULTON         CLOUDY    73  63  70 S8        29.99F
SYRACUSE       PTCLDY    74  63  68 S9        29.99F
ROME           CLEAR     69  62  78 E5        30.05S
ELMIRA         CLEAR     66  61  84 VRB3      30.04F
BINGHAMTON     CLEAR     67  62  84 S9        30.11S
MONTICELLO     CLEAR     59  57  94 CALM      30.15F
$$

NYZ026>034-041>043-087-250800-
NORTH


CITY           SKY/WX    TMP DP  RH WIND       PRES   REMARKS
WATERTOWN      CLOUDY    76  62  62 S9        29.96F
FORT DRUM      NOT AVBL
MASSENA        CLOUDY    73  61  65 S10       29.95F
SARANAC LAKE   PTCLDY    66  57  72 SW6       30.05F
PLATTSBURGH    PTCLDY    63  61  93 CALM      30.00F
$$

NYZ001>004-010>016-019>021-085-250800-
WEST


CITY           SKY/WX    TMP DP  RH WIND       PRES   REMARKS
NIAGARA FALLS  LGT RAIN  78  64  61 S8        29.92F
BUFFALO        CLOUDY    78  63  59 S15       29.94F
DUNKIRK        CLOUDY    76  65  68 S18       29.94F
JAMESTOWN      PTCLDY    70  61  73 S8        30.03S
WELLSVILLE     CLEAR     70  62  76 S10       30.09F
ROCHESTER      CLOUDY    74  62  66 S6        29.96F
PENN YAN       CLOUDY    74  63  68 S12       30.02F
$$

             KEY
       WCI = WIND CHILL INDEX
       VSB = VISIBILITY
       HX  = HEAT INDEX
$$




USA.gov is the U.S. government's official web portal to all federal, state and local government web resources and services.